Theta_e
321 324 327 328 323 325 323 324 323 323 326 325 324 321 322 321 316 316 318 317 317 316 315 313 313 313 311 312 313 312 312 312 313 311 309 311 312 313 313 315 314 319 324
319 321 324 325 321 322 323 323 324 325 325 324 324 319 317 315 314 315 314 316 316 316 316 313 312 312 310 311 311 312 311 311 312 309 309 303 306 310 313 313 314 316 320
317 319 321 322 322 322 323 325 325 324 324 322 319 315 313 312 312 312 313 314 315 315 314 313 312 311 310 308 309 309 310 308 311 312 309 302 300 305 309 312 313 314 320
318 319 320 320 320 321 326 326 324 322 322 320 316 313 310 309 310 310 312 312 313 313 313 312 311 310 309 309 310 312 311 311 308 309 311 310 309 303 301 308 311 313 314
317 318 319 320 321 322 325 325 323 322 320 317 315 312 311 310 311 310 309 310 310 311 311 311 311 309 309 311 312 310 309 309 308 307 307 308 308 307 305 301 306 312 315
318 318 320 321 320 322 324 323 322 319 317 316 315 313 311 310 308 307 306 307 307 308 309 310 309 310 310 310 311 312 309 308 308 308 308 307 306 305 304 304 305 306 310
317 317 318 317 318 319 321 320 316 315 313 313 311 310 309 309 307 306 305 306 306 306 307 308 309 310 311 311 311 310 309 308 306 306 306 308 307 308 307 305 304 305 309
315 316 317 316 316 318 317 313 312 311 310 308 308 310 309 308 307 307 306 305 304 305 308 309 310 310 311 310 310 308 307 307 306 305 307 307 308 308 307 305 303 302 305
314 314 315 315 312 311 311 310 309 307 307 308 310 309 308 307 307 306 305 304 305 306 309 309 309 309 309 309 308 307 307 307 307 306 306 305 306 307 308 307 307 304 302
310 313 314 312 308 308 306 306 306 306 307 309 308 308 307 307 306 305 304 304 305 307 307 308 308 309 309 309 308 307 308 307 307 307 306 306 306 307 308 307 308 308 306
306 309 309 307 306 304 304 304 305 306 307 307 307 306 306 306 305 304 303 304 307 307 307 307 308 307 307 308 307 307 307 306 306 307 306 305 307 306 307 308 308 308 308
303 304 305 305 304 304 304 304 305 305 307 307 306 305 305 304 303 302 303 307 307 307 307 307 307 307 307 308 307 306 307 306 306 306 306 306 308 308 307 309 309 308 310
303 303 303 303 304 304 304 304 304 305 307 306 305 303 302 302 302 302 305 307 307 307 307 306 306 307 307 307 307 307 307 307 306 306 306 306 306 308 309 309 308 310 312
303 302 302 302 303 304 304 304 305 306 306 305 303 301 301 301 302 303 306 307 307 305 306 306 307 307 308 307 307 307 307 307 306 306 305 307 307 307 307 310 310 311 308
302 302 302 302 303 303 304 304 305 306 305 302 301 301 301 302 303 306 307 307 306 306 307 307 307 307 307 307 306 307 306 305 304 306 308 310 311 313 313 312 310 309 306
303 303 304 304 303 303 303 304 304 305 303 301 301 301 301 302 303 306 306 305 305 306 306 306 306 306 306 304 306 307 305 304 303 304 307 309 309 310 311 313 312 310 306
304 304 305 304 304 303 304 303 304 304 302 300 300 301 301 302 304 306 305 305 305 306 306 306 306 304 306 302 302 305 304 304 303 304 306 308 307 307 311 310 310 310 309
305 306 305 305 304 303 303 305 303 303 302 300 300 301 301 302 305 305 304 304 304 304 305 306 304 304 305 301 300 302 305 306 307 306 306 307 305 305 310 311 310 310 310
306 307 306 305 305 303 303 304 302 301 300 300 299 301 301 302 304 304 303 303 302 304 305 304 304 303 302 298 296 302 306 306 306 304 302 307 308 301 303 310 308 308 308
309 308 308 306 304 303 304 302 300 299 298 299 300 301 302 304 303 302 301 302 303 303 304 304 304 302 301 298 296 302 306 304 304 303 302 300 302 299 302 310 308 306 307
310 310 306 304 303 303 302 299 299 298 300 300 301 302 304 304 302 301 302 301 302 303 305 303 300 299 299 300 297 301 305 304 302 302 300 302 298 297 301 304 310 308 309
309 309 305 303 302 301 300 299 299 300 300 300 301 302 304 303 302 301 300 301 302 303 302 301 299 300 302 299 298 298 298 300 302 302 302 302 297 297 299 303 298 300 306
308 307 304 302 300 300 300 299 300 300 300 300 300 303 303 302 303 300 299 300 302 302 302 301 300 300 300 302 297 295 297 299 303 303 299 297 298 299 301 299 300 304 310
308 307 303 300 299 300 301 301 301 300 300 300 302 303 303 300 302 300 299 299 298 301 301 301 301 299 300 301 302 302 303 302 306 306 306 303 303 302 304 307 307 311 310
309 307 303 300 300 301 301 302 300 301 300 301 303 303 302 299 301 300 295 297 295 294 300 301 301 300 300 300 297 299 303 305 304 308 310 309 307 306 306 306 308 309 310
309 306 301 301 301 301 301 301 301 301 301 301 303 301 300 300 300 300 300 293 292 292 292 292 298 299 295 295 295 295 294 297 299 309 307 307 307 306 305 305 305 306 306
Wind_Speed
2 3 3 2 4 2 2 3 4 3 3 2 2 2 2 2 2 1 2 3 2 2 1 1 3 3 3 4 6 4 4 2 1 2 2 3 5 5 6 3 4 4 5
4 4 0 1 3 3 2 4 4 4 4 2 2 1 1 1 2 2 2 1 1 2 1 3 3 4 4 5 4 4 3 2 1 1 1 3 4 4 4 4 3 5 4
8 5 4 2 3 3 4 5 5 4 4 3 1 2 1 1 2 1 2 2 4 3 3 4 3 4 3 4 5 5 4 2 2 2 2 1 3 3 3 3 2 5 2
6 5 5 5 5 6 4 5 7 6 4 1 0 1 1 2 2 2 2 4 4 5 5 4 4 3 4 5 6 4 4 3 4 1 3 3 2 2 4 3 4 3 5
8 8 7 6 6 6 5 6 4 5 2 2 1 1 2 2 2 3 5 5 5 5 6 6 6 5 4 5 6 3 3 2 2 2 2 2 1 3 5 4 3 2 3
7 7 6 5 5 3 5 5 5 4 3 3 3 3 5 5 4 4 4 5 4 5 7 7 6 6 7 5 6 3 3 3 3 4 4 4 3 2 3 4 3 3 2
6 5 6 5 5 7 7 3 2 4 3 4 5 4 3 2 3 4 3 5 4 5 8 7 6 6 6 6 5 3 4 4 5 7 6 5 6 4 2 2 2 3 1
3 6 6 6 7 5 2 2 0 3 3 3 3 2 2 1 2 2 3 4 4 6 8 9 7 7 6 6 5 3 5 6 7 8 6 5 5 5 4 3 3 2 5
6 7 6 7 3 2 3 1 1 2 3 4 2 2 3 3 4 5 5 5 6 6 7 8 8 7 6 6 6 5 7 7 7 6 6 6 6 6 5 4 3 4 4
5 6 6 2 1 1 2 3 1 2 3 3 2 3 4 4 5 5 7 7 7 6 7 8 8 7 7 7 7 6 7 7 4 4 6 5 4 5 5 5 4 5 5
5 5 1 1 1 2 2 2 2 2 2 2 3 4 5 5 5 5 7 8 6 6 7 7 7 7 7 7 6 7 7 7 6 5 5 6 6 4 4 4 5 6 5
3 1 4 4 3 5 5 4 3 4 4 3 3 5 5 5 6 7 8 7 6 6 7 7 7 7 7 7 7 7 5 5 5 4 5 7 5 7 6 5 6 7 7
2 3 3 5 6 6 5 5 5 5 3 2 3 5 6 5 6 7 7 7 6 6 6 5 7 7 7 6 6 5 6 6 4 6 6 7 6 5 4 7 6 7 6
6 4 3 7 6 6 5 5 5 3 2 3 4 5 6 6 7 7 7 8 6 6 6 5 6 6 6 6 5 5 3 4 5 5 5 5 5 8 9 8 7 8 9
6 7 8 7 7 7 6 4 4 3 1 4 5 6 6 6 7 7 7 7 6 5 5 6 6 5 4 3 4 4 3 5 6 5 2 3 7 7 9 7 8 11 11
8 9 8 8 10 7 6 5 3 2 1 4 5 6 6 6 7 7 7 7 6 6 5 5 6 5 3 6 5 3 3 4 4 5 4 3 10 8 12 20 16 12 14
10 9 9 9 8 5 3 1 2 2 2 5 5 6 7 7 7 7 7 7 6 6 6 5 4 4 4 5 4 5 3 4 4 4 4 4 6 8 8 15 17 17 15
9 9 8 7 2 2 3 2 4 1 4 5 5 6 7 7 7 7 6 6 5 5 5 3 3 3 4 6 6 6 3 3 4 5 5 4 5 5 8 11 10 12 11
8 9 5 4 3 5 5 5 3 2 4 5 6 6 7 7 7 7 7 6 5 5 4 2 4 3 4 9 9 5 4 5 7 7 8 5 6 7 10 11 11 11 10
6 8 6 2 5 5 5 5 1 3 4 5 6 6 6 6 6 7 7 5 5 4 2 3 4 7 5 9 9 3 3 4 4 6 7 12 5 7 10 10 10 11 9
8 7 4 2 5 6 6 4 1 4 4 4 5 6 6 5 5 6 6 5 5 3 4 6 6 6 6 7 8 6 4 3 4 6 5 4 5 8 9 9 8 10 10
9 7 3 6 4 5 5 3 2 3 4 4 5 5 4 5 5 6 6 5 5 4 5 5 5 4 5 10 8 10 9 7 5 5 4 4 8 10 11 8 13 14 11
6 5 6 4 4 4 4 3 2 3 4 4 4 4 4 6 6 6 6 5 5 4 4 4 4 4 4 4 11 12 11 10 6 4 5 10 12 13 13 13 12 10 7
7 5 2 5 5 4 3 2 2 3 3 4 4 3 4 6 6 5 5 5 5 4 4 4 4 3 4 4 4 5 5 6 6 5 6 10 10 11 9 9 7 6 6
7 5 2 5 5 4 3 2 2 3 4 4 4 4 4 5 4 5 5 4 3 2 3 3 3 2 3 3 3 3 4 4 4 3 4 5 6 6 6 7 7 7 7
8 6 4 6 5 4 3 2 2 3 3 3 3 4 3 3 4 3 3 7 6 8 6 3 1 1 1 2 6 7 6 7 6 4 4 6 6 6 6 6 6 6 7
Wind_Direction
265 103 121 133 25 94 137 143 133 177 167 183 179 227 196 224 248 293 317 39 22 1 341 301 329 333 314 289 295 285 275 276 222 296 280 280 289 288 297 293 309 327 326
261 253 173 333 33 321 189 151 170 207 218 186 203 194 114 310 275 277 288 183 320 320 354 351 318 313 309 319 319 313 314 294 224 265 354 293 313 303 270 315 326 330 333
271 285 289 281 294 302 218 200 195 204 221 208 88 26 28 302 329 322 344 314 329 333 326 302 282 299 307 302 292 287 258 266 273 222 240 270 261 323 319 334 1 339 12
258 258 250 250 231 249 220 198 185 199 220 251 221 100 197 289 264 298 297 308 316 308 300 294 280 283 294 283 274 261 251 220 253 308 230 230 207 226 310 322 321 351 357
237 247 247 242 234 244 218 220 198 248 305 241 220 338 291 255 310 311 302 311 321 313 318 320 304 290 273 269 267 246 242 250 280 234 267 252 269 230 231 278 309 341 19
243 248 253 276 271 225 201 204 217 276 269 304 321 325 301 314 318 326 335 331 315 314 312 303 289 276 274 267 278 236 229 221 239 253 246 234 224 224 203 230 255 277 323
238 249 244 239 232 212 218 206 190 258 322 350 3 329 296 352 335 324 309 314 306 299 294 290 281 270 270 279 267 238 247 255 252 254 253 232 234 234 230 191 227 252 277
241 240 226 218 225 236 109 123 128 300 356 349 312 15 31 305 281 274 280 269 268 279 280 288 287 291 286 284 265 257 262 262 254 249 242 250 238 222 220 205 168 219 244
225 231 231 228 309 92 147 176 20 349 334 320 5 329 293 296 278 281 281 274 276 281 291 294 289 289 291 282 268 266 262 264 252 245 248 248 245 225 223 217 188 211 222
233 238 241 249 85 80 73 99 92 258 307 351 304 276 285 260 265 284 275 280 281 279 295 300 295 291 296 292 278 269 267 263 249 244 250 253 250 234 224 223 189 214 237
249 246 244 151 126 91 134 200 252 303 298 265 272 278 270 277 294 283 287 274 283 293 300 301 300 300 298 293 287 276 276 266 264 245 257 260 248 236 221 207 206 205 219
264 158 186 170 167 202 213 223 249 253 241 255 283 283 288 291 290 295 290 290 290 301 298 305 304 294 292 293 289 291 296 286 272 261 261 269 266 251 223 218 214 201 205
179 179 172 206 219 233 243 243 255 261 252 280 295 299 291 293 290 292 292 295 295 302 300 301 301 302 304 301 299 295 284 282 280 280 288 289 270 261 233 221 231 194 171
203 214 234 241 241 242 246 256 281 254 269 285 299 296 296 290 284 289 295 297 300 303 303 301 302 307 307 300 296 306 307 311 301 302 276 272 268 261 253 213 181 151 121
232 229 233 239 244 246 250 258 254 230 228 298 302 296 294 291 291 292 300 303 302 298 302 305 313 311 303 299 310 298 322 337 325 308 313 306 330 69 24 153 137 129 119
245 250 250 249 244 235 237 239 244 236 318 298 296 295 296 299 297 299 305 307 306 309 310 312 321 313 310 322 321 305 346 332 329 332 348 356 29 24 35 93 97 124 126
246 253 251 248 247 229 243 284 241 181 281 302 302 300 303 304 305 308 311 306 315 314 313 314 322 323 327 353 349 332 5 332 331 350 8 29 40 26 75 85 87 96 96
258 277 275 292 296 101 132 134 109 345 314 311 304 301 306 308 309 317 312 312 319 324 317 330 350 20 26 11 359 340 344 360 18 39 26 51 40 43 86 98 86 88 103
285 270 279 253 149 159 157 123 139 282 327 316 303 305 308 308 322 322 325 324 319 327 338 4 18 47 26 7 351 358 27 62 59 45 33 28 59 81 91 101 100 95 91
296 300 290 147 147 156 134 118 102 340 323 302 305 309 308 318 331 339 329 319 317 319 323 51 53 44 17 355 351 35 52 60 56 55 48 38 57 87 101 118 121 116 117
317 323 341 245 184 146 118 102 32 337 307 308 316 317 325 344 351 327 344 322 330 336 71 69 49 39 15 340 1 50 51 53 54 45 31 35 79 94 109 114 126 127 125
328 320 269 224 114 102 111 117 17 326 312 326 329 330 355 360 352 350 341 344 353 44 66 70 51 15 355 14 41 63 59 50 67 46 44 61 73 76 86 94 112 111 115
313 298 250 95 118 129 117 89 0 356 332 348 341 348 8 8 10 358 2 2 7 50 57 58 48 17 4 28 55 58 66 57 64 66 77 90 79 77 81 92 99 105 114
316 301 235 139 140 149 145 102 5 348 354 353 354 10 29 16 17 26 10 23 15 30 47 65 54 22 22 33 32 58 64 57 49 68 68 84 82 73 71 70 67 86 95
309 306 232 142 150 163 140 77 5 3 3 5 30 38 43 30 13 58 23 15 52 15 29 49 58 49 36 7 26 66 72 79 47 60 67 78 73 74 74 74 76 87 91
308 335 110 137 152 150 135 75 27 33 19 24 47 55 39 34 33 28 40 63 62 60 47 26 92 130 350 28 66 70 61 53 22 65 75 84 81 78 78 80 80 78 86